Flag for U.S.A. Weather past 2 weeks in Port St. Lucie, Florida, U.S.A.

Now
50 °F

Clear.


Feels Like: 50 °F
Forecast: 49 / 69 °F
Wind: No wind

Location: Witham Field Airport

Current Time: Jan 26, 2015 at 1:41:10 AM

Latest Report: Jan 26, 2015 at 1:15 AM


Visibility: 10 mi

Pressure: 29.97 "Hg

Humidity: 76%

Dew point: 43 °F

Location of Port St. LucieLocation

Historic Weather in Port St. Lucie — Graph

°F

Port St. Lucie temperature yesterday

Maximum temperature yesterday: 64 °F (at 2:47 PM)
Minimum temperature yesterday: 45 °F (at 4:15 AM)
Average temperature yesterday: 51 °F

Past Weeks' High & Low Weather Summary

 TemperatureHumidityPressure
High81 °F (Jan 13, 12:47 PM)100% (Jan 12, 7:35 PM)30.34 "Hg (Jan 12, 7:35 PM)
Low45 °F (Jan 25, 4:15 AM)26% (Jan 25, 3:47 PM)29.86 "Hg (Jan 24, 6:15 AM)
Average63 °F83%30.10 "Hg
* Reported Jan 11 12:15 AM — Jan 26 12:35 AM, Port St. Lucie, Weather by CustomWeather, © 2014

Note: Actual official high and low records may vary slightly from our data, if they occured in-between our weather recording intervals... More about our weather records

Advertising

Port St. Lucie weather history for previous 24 hours

 ConditionsComfort  
Time TempWeatherWind HumidityBarometerVisibility
12:35 AM
Jan 26
50 °FClear.5 mph76%29.98 "Hg10 mi
12:15 AM50 °FClear.5 mph76%29.99 "Hg10 mi
11:55 PM
Jan 25
50 °FClear.No wind76%30.00 "Hg10 mi
11:15 PM48 °FClear.3 mph76%30.02 "Hg10 mi
10:55 PM46 °FClear.No wind82%30.02 "Hg10 mi
10:15 PM48 °FClear.No wind82%30.03 "Hg10 mi
9:55 PM50 °FClear.No wind76%30.04 "Hg10 mi
9:35 PM52 °FClear.No wind67%30.04 "Hg10 mi
9:15 PM52 °FClear.No wind67%30.04 "Hg10 mi
8:55 PM52 °FClear.5 mph72%30.05 "Hg10 mi
8:35 PM52 °FClear.No wind67%30.02 "Hg10 mi
8:15 PM54 °FClear.No wind63%30.02 "Hg10 mi
7:55 PM54 °FClear.3 mph63%30.05 "Hg10 mi
7:15 PM55 °FClear.5 mph59%30.03 "Hg10 mi
4:47 PM63 °FSunny.5 mph42%29.99 "Hg7 mi
3:47 PM64 °FSunny.No wind26%30.00 "Hg7 mi
2:47 PM64 °FSunny.7 mph28%30.01 "Hg7 mi
1:47 PM63 °FPassing clouds.5 mph27%30.04 "Hg7 mi
12:47 PM61 °FPassing clouds.5 mph31%30.06 "Hg7 mi
11:47 AM59 °FPassing clouds.9 mph39%30.10 "Hg7 mi
10:47 AM55 °FPassing clouds.9 mph51%30.12 "Hg7 mi
9:47 AM54 °FPassing clouds.9 mph54%30.12 "Hg7 mi
8:47 AM50 °FPassing clouds.10 mph67%30.12 "Hg7 mi
7:47 AM45 °FPassing clouds.7 mph87%30.10 "Hg7 mi
6:47 AM46 °FPassing clouds.12 mph82%30.08 "Hg7 mi
6:15 AM45 °FClear.6 mph93%30.07 "Hg10 mi
5:55 AM45 °FClear.3 mph93%30.06 "Hg10 mi
5:35 AM45 °FClear.5 mph93%30.06 "Hg10 mi
5:15 AM45 °FClear.5 mph93%30.06 "Hg10 mi
4:55 AM45 °FClear.7 mph93%30.05 "Hg10 mi
4:35 AM45 °FClear.5 mph93%30.05 "Hg10 mi
4:15 AM45 °FClear.3 mph93%30.05 "Hg10 mi
3:55 AM46 °FClear.No wind87%30.05 "Hg10 mi
3:35 AM46 °FClear.3 mph87%30.04 "Hg10 mi
3:15 AM46 °FClear.5 mph93%30.04 "Hg10 mi
2:55 AM46 °FClear.8 mph93%30.04 "Hg10 mi
2:15 AM48 °FClear.6 mph87%30.03 "Hg10 mi
1:55 AM50 °FClear.10 mph82%30.03 "Hg10 mi
1:15 AM50 °FClear.13 mph88%30.03 "Hg10 mi
Weather by CustomWeather, © 2014

See weather overviewHow to use our weather pages